Regional Weather Roundup
Issued by NWS

Home | Current Version | Previous Version | Text Only | Print | Product List | Glossary Off
Versions: 1 2 3 4 5 6 7 8 9 10 11 12 13 14 15 16 17 18 19 20 21 22 23 24 25 26 27 28 29 30 31 32 33 34 35 36 37 38 39 40 41 42 43 44 45 46 47 48 49 50

531
ASUS43 KLMK 301810
RWRKY
KENTUCKY REGIONAL WEATHER ROUNDUP
NATIONAL WEATHER SERVICE LOUISVILLE KY
200 PM EDT SUN APR 30 2017

NOTE "FAIR" INDICATES FEW OR NO CLOUDS BELOW 12,000 FEET
WITH NO SIGNIFICANT WEATHER AND/OR OBSTRUCTIONS TO VISIBILITY.

KYZ001>023-026-027-061>063-070>075-301900-
WESTERN AND SOUTH CENTRAL KENTUCKY

CITY           SKY/WX    TMP DP  RH WIND       PRES   REMARKS
PADUCAH        CLOUDY    72  67  84 SE10      29.72F
HENDERSON        N/A    N/A N/A N/A MISG        N/A
OWENSBORO      CLOUDY    79  68  69 S17G30    29.81F
HOPKINSVILLE   PTSUNNY   77  66  69 S14G21    29.82F
BOWLING GREEN  CLOUDY    83  66  56 S28G36    29.89F
GLASGOW        CLOUDY    81  65  57 S12G24    29.91F
$$

KYZ024-025-028>034-038-045-046-053-301900-
NORTH CENTRAL KENTUCKY

CITY           SKY/WX    TMP DP  RH WIND       PRES   REMARKS
LOUISVILLE/SDF CLOUDY    81  66  60 S16G26    29.87F
LOUISVILLE/LOU CLOUDY    80  67  64 S14G21    29.88F
FORT KNOX      CLOUDY    80  65  62 S24G31    29.87F
$$

KYZ035>037-039>044-047>052-055>060-089>105-301900-
NORTHEAST KENTUCKY

CITY           SKY/WX    TMP DP  RH WIND       PRES   REMARKS
LEXINGTON      PTSUNNY   81  64  56 S20G25    29.95F
COVINGTON      CLOUDY    79  65  62 S16G29    29.90F
FRANKFORT      CLOUDY    82  64  54 S17G31    29.90F
$$

KYZ054-064>069-076>088-106>120-301900-
SOUTHEAST KENTUCKY

CITY           SKY/WX    TMP DP  RH WIND       PRES   REMARKS
JACKSON        MOSUNNY   84  62  47 VRB6G20   30.02F
LONDON         CLOUDY    82  60  47 SW8       30.01F
SOMERSET       PTSUNNY   81  61  50 S12G23    29.99F
MIDDLESBORO    MOSUNNY   83  62  47 S9G20     30.04F
MONTICELLO     CLOUDY    82  65  56 SE13G26   29.98F
$$





USA.gov is the U.S. government's official web portal to all federal, state and local government web resources and services.